Tracking 19242 objects as of 17-Aug-2018
HD Live streaming from Space Station
objects crossing your sky now

IRIDIUM 46

Track IRIDIUM 46 now!
10-day predictions
IRIDIUM 46 is classified as:


NORAD ID: 24905
Int'l Code: 1997-043C
Perigee: 267.8 km
Apogee: 622.5 km
Inclination: 86.4 °
Period: 93.3 minutes
Semi major axis: 6816 km
RCS: 3.9325 m2 (large)
Launch date: August 21, 1997
Source: United States (US)
Launch site: AIR FORCE WESTERN TEST RANGE (AFWTR)
aabbcc
Your satellite tracking list
Your tracking list is empty




NASA's NSSDC Master Catalog

Two Line Element Set (TLE):
1 24905U 97043C   18228.51619401  .00075029 -17690-7  46278-3 0  9995
2 24905  86.3811  64.5116 0260179  27.5041 333.9705 15.42736140100594
Source of the keplerian elements: AFSPC